Lid_Strength_Index
11 12 11 11 11 11 9 9 11 13 11 10 11 9 9 10 8 7 7 7 8 9 10 10 9 9 8 8 8 8 8 8 7 6 4 3 3 4
12 13 12 12 13 12 12 11 11 12 12 10 10 10 10 10 8 8 7 8 8 9 10 10 11 11 10 9 9 9 9 9 9 8 7 6 5 3
14 14 13 13 13 13 13 13 13 12 13 11 10 12 13 13 12 10 8 9 10 9 10 10 11 11 11 11 10 10 10 10 9 10 9 8 7 6
15 15 15 13 14 14 14 14 14 13 14 15 14 14 15 14 13 12 10 8 11 9 9 9 11 12 12 12 11 11 11 10 10 11 11 10 9 8
17 19 20 17 18 18 16 16 15 13 14 15 18 16 17 16 15 14 13 12 10 10 9 9 11 11 12 12 12 12 11 11 11 11 12 12 11 10
20 20 21 22 22 21 20 22 17 16 15 17 21 22 23 20 18 18 16 14 14 13 11 10 11 11 12 12 12 12 12 12 12 12 11 12 12 12
19 18 16 14 12 14 16 19 20 20 20 20 22 23 21 22 21 20 21 16 16 17 16 13 13 13 13 13 12 12 13 13 12 12 12 12 12 12
15 15 15 14 13 12 13 13 15 19 19 21 22 24 25 26 23 20 20 20 18 16 21 15 14 15 12 12 11 12 12 13 13 12 12 12 12 13
15 16 15 14 14 14 13 13 13 13 15 17 19 22 21 20 17 18 18 16 19 18 20 20 15 16 13 11 10 11 12 13 13 13 13 13 12 12
16 16 17 17 14 15 15 15 15 15 14 14 16 15 14 14 15 15 16 16 15 16 16 19 16 17 14 12 11 11 11 12 13 13 13 13 14 13
16 16 16 17 14 14 16 16 16 16 13 12 11 12 12 12 13 15 16 17 18 18 18 18 19 17 16 14 12 11 11 12 12 13 13 12 14 14
16 15 14 16 14 15 17 17 17 17 16 16 14 15 15 15 14 14 15 16 17 19 19 19 19 19 21 16 14 13 14 12 12 12 13 12 13 15
16 18 18 15 15 15 16 17 18 22 22 22 22 21 20 19 18 18 22 17 17 19 15 20 22 21 22 21 17 15 15 14 15 15 13 12 12 14
19 21 22 15 15 15 18 14 14 21 22 23 24 24 24 23 20 19 20 18 20 17 16 18 21 20 23 23 22 16 16 15 15 16 15 14 12 12
19 18 15 15 14 15 15 14 20 24 25 25 27 26 26 25 22 20 20 19 20 19 15 14 15 18 20 20 19 18 19 16 16 16 16 16 15 13
17 18 20 18 20 22 19 20 23 25 25 26 26 27 26 23 23 24 23 23 23 20 15 15 15 17 20 20 15 19 18 20 17 16 16 16 15 15
20 20 20 21 22 22 21 23 24 24 24 26 26 26 25 24 22 22 22 22 23 23 20 18 16 15 17 17 20 19 19 20 19 18 18 19 17 16
21 22 20 23 23 23 23 23 23 22 23 21 24 22 22 22 21 19 19 22 23 22 22 20 20 20 19 19 15 21 22 22 18 18 18 22 21 17
20 20 22 23 22 18 19 21 22 22 21 21 22 21 21 20 20 19 20 19 20 21 19 19 18 22 24 27 21 14 22 18 20 22 20 21 22 18
17 19 16 19 17 17 17 18 19 20 20 20 23 24 26 22 23 21 20 24 21 19 19 18 19 19 25 27 24 19 12 15 17 20 23 21 18 14
17 16 16 17 17 17 20 21 24 23 24 26 22 22 29 23 24 22 22 23 23 19 20 20 18 17 17 17 23 22 17 12 13 16 17 23 23 21
16 14 14 16 18 19 22 24 25 26 24 23 27 29 28 25 25 24 24 25 21 20 19 18 17 17 18 18 19 20 18 18 14 12 12 13 16 18
17 13 15 18 19 19 19 23 23 26 24 24 25 25 30 26 23 22 22 21 20 19 18 19 18 17 18 18 19 19 19 20 17 16 16 13 13 13